This demonstration page uses our WeatherBlox Daily Observations layout. Learn more.

Left ArrowRight Arrow

Hourly Observations for November 22, 2021

Temp ( °F °C ) Dew Point ( °F °C ) Humidity (%) Winds ( mph kmh ) Pressure ( in mb ) Visibility ( mi km ) Precip ( " mm )
12:53 am 00:53 Clear 36 2.2 20 -6.7 52 52 W 7 11 30.13 1020 10 16 0.00 0.00
1:53 am 01:53 Clear 33 0.6 19 -7.2 56 56 SW 9 15 30.11 1020 10 16 0.00 0.00
2:53 am 02:53 Clear 31 -0.6 18 -7.8 59 59 W 5 7 30.11 1020 10 16 0.00 0.00
3:53 am 03:53 Clear 34 1.1 17 -8.3 50 50 WSW 7 11 30.10 1019 10 16 0.00 0.00
4:53 am 04:53 Clear 31 -0.6 17 -8.3 56 56 WSW 9 15 30.08 1019 10 16 0.00 0.00
5:53 am 05:53 Clear 33 0.6 16 -8.9 49 49 W 6 9 30.07 1018 10 16 0.00 0.00
6:53 am 06:53 Clear 33 0.6 18 -7.8 54 54 W 5 7 30.06 1018 10 16 0.00 0.00
7:53 am 07:53 Sunny 31 -0.6 21 -6.1 67 67 NE 5 7 30.06 1018 10 16 0.00 0.00
8:53 am 08:53 Sunny 32 0 21 -6.1 64 64 ESE 3 6 30.05 1018 10 16 0.00 0.00
9:53 am 09:53 Sunny 51 10.6 18 -7.8 27 27 WSW 14 22 29.99 1016 10 16 0.00 0.00
10:53 am 10:53 Sunny 51 10.6 18 -7.8 27 27 W 10 17 29.96 1014 10 16 0.00 0.00
11:53 am 11:53 Sunny 57 13.9 18 -7.8 22 22 WSW 15 24 29.92 1013 10 16 0.00 0.00
12:53 pm 12:53 Sunny 57 13.9 20 -6.7 24 24 SW 16 26 29.86 1011 10 16 0.00 0.00
1:53 pm 13:53 Sunny 59 15 15 -9.4 18 18 SW 20 31 29.83 1010 10 16 0.00 0.00
2:53 pm 14:53 Sunny 58 14.4 15 -9.4 18 18 SW 25 41 29.79 1009 10 16 0.00 0.00
3:53 pm 15:53 Sunny 56 13.3 12 -11.1 17 17 WSW 20 31 29.79 1009 10 16 0.00 0.00
4:53 pm 16:53 Clear 56 13.3 10 -12.2 16 16 WSW 22 35 29.78 1009 10 16 0.00 0.00
5:53 pm 17:53 Clear 52 11.1 11 -11.7 19 19 SW 20 31 29.77 1008 10 16 0.00 0.00
6:53 pm 18:53 Clear 46 7.8 12 -11.1 25 25 SW 17 28 29.76 1008 10 16 0.00 0.00
7:53 pm 19:53 Clear 46 7.8 11 -11.7 24 24 WSW 26 43 29.73 1007 10 16 0.00 0.00
8:53 pm 20:53 Clear 49 9.4 11 -11.7 21 21 WSW 29 46 29.73 1007 10 16 0.00 0.00
9:53 pm 21:53 Clear 45 7.2 10 -12.2 24 24 WSW 10 17 29.74 1007 10 16 0.00 0.00
10:53 pm 22:53 Clear 40 4.4 11 -11.7 30 30 SW 16 26 29.73 1007 10 16 0.00 0.00
11:53 pm 23:53 Clear 42 5.6 11 -11.7 28 28 SW 18 30 29.71 1006 10 16 0.00 0.00

Powered by AerisWeather